TimeEST,TemperatureF,Dew PointF,Humidity,Sea Level PressureIn,VisibilityMPH,Wind Direction,Wind SpeedMPH,Gust SpeedMPH,PrecipitationIn,Events,Conditions,WindDirDegrees,DateUTC
12:15 AM,51.8,51.8,100,30.04,10.0,SW,4.6,-,N/A,,Clear,230,2012-12-09 05:15:00
12:35 AM,53.6,51.8,94,30.05,10.0,WSW,5.8,-,N/A,,Clear,250,2012-12-09 05:35:00
12:55 AM,55.4,53.6,94,30.05,10.0,WSW,4.6,-,N/A,,Clear,240,2012-12-09 05:55:00
1:15 AM,53.6,51.8,94,30.05,10.0,West,4.6,-,N/A,,Clear,260,2012-12-09 06:15:00
1:35 AM,53.6,51.8,94,30.05,10.0,WSW,3.5,-,N/A,,Clear,240,2012-12-09 06:35:00
1:55 AM,53.6,51.8,94,30.06,5.0,Calm,Calm,-,N/A,,Clear,0,2012-12-09 06:55:00
2:15 AM,53.6,51.8,94,30.06,10.0,WSW,3.5,-,N/A,,Clear,250,2012-12-09 07:15:00
2:35 AM,53.6,51.8,94,30.07,10.0,WSW,5.8,-,N/A,,Clear,240,2012-12-09 07:35:00
2:55 AM,53.6,51.8,94,30.07,7.0,WSW,3.5,-,N/A,,Clear,240,2012-12-09 07:55:00
3:15 AM,51.8,50.0,94,30.07,3.0,SSW,3.5,-,N/A,,Clear,210,2012-12-09 08:15:00
3:35 AM,48.2,46.4,93,30.07,1.8,Calm,Calm,-,N/A,,Unknown,0,2012-12-09 08:35:00
3:55 AM,48.2,46.4,93,30.07,1.5,Calm,Calm,-,N/A,,Unknown,0,2012-12-09 08:55:00
4:15 AM,48.2,46.4,93,30.07,1.2,SSW,3.5,-,N/A,,Mostly Cloudy,200,2012-12-09 09:15:00
4:35 AM,48.2,46.4,93,30.08,1.5,Calm,Calm,-,N/A,,Mostly Cloudy,0,2012-12-09 09:35:00
4:55 AM,48.2,46.4,93,30.08,3.0,Calm,Calm,-,N/A,,Mostly Cloudy,0,2012-12-09 09:55:00
5:15 AM,48.2,46.4,93,30.09,2.5,Calm,Calm,-,N/A,,Scattered Clouds,0,2012-12-09 10:15:00
5:35 AM,48.2,46.4,93,30.10,1.2,Calm,Calm,-,N/A,,Mostly Cloudy,0,2012-12-09 10:35:00
5:55 AM,46.4,46.4,100,30.10,2.5,Calm,Calm,-,N/A,,Clear,0,2012-12-09 10:55:00
6:15 AM,46.4,44.6,93,30.11,2.5,Calm,Calm,-,N/A,,Clear,0,2012-12-09 11:15:00
6:35 AM,46.4,44.6,93,30.11,2.0,Calm,Calm,-,N/A,,Mostly Cloudy,0,2012-12-09 11:35:00
7:15 AM,46.4,44.6,93,30.11,1.8,South,3.5,-,N/A,,Mostly Cloudy,180,2012-12-09 12:15:00
7:35 AM,46.4,46.4,100,30.11,1.0,SE,3.5,-,N/A,,Overcast,140,2012-12-09 12:35:00
7:55 AM,48.2,46.4,93,30.13,2.0,Calm,Calm,-,N/A,,Overcast,0,2012-12-09 12:55:00
8:15 AM,50.0,48.2,94,30.13,2.5,South,4.6,-,N/A,,Mostly Cloudy,170,2012-12-09 13:15:00
8:35 AM,53.6,51.8,94,30.14,2.0,South,3.5,-,N/A,,Overcast,170,2012-12-09 13:35:00
8:55 AM,53.6,51.8,94,30.14,2.5,Calm,Calm,-,N/A,,Mostly Cloudy,0,2012-12-09 13:55:00
9:15 AM,55.4,53.6,94,30.14,4.0,Calm,Calm,-,N/A,,Mostly Cloudy,0,2012-12-09 14:15:00
9:35 AM,55.4,53.6,94,30.15,7.0,Calm,Calm,-,N/A,,Mostly Cloudy,0,2012-12-09 14:35:00
9:55 AM,55.4,53.6,94,30.15,5.0,Calm,Calm,-,N/A,,Mostly Cloudy,0,2012-12-09 14:55:00
10:15 AM,55.4,53.6,94,30.16,7.0,Calm,Calm,-,N/A,,Mostly Cloudy,0,2012-12-09 15:15:00
10:35 AM,57.2,55.4,94,30.15,7.0,Calm,Calm,-,N/A,,Mostly Cloudy,0,2012-12-09 15:35:00
10:55 AM,59.0,55.4,88,30.13,10.0,SSW,4.6,-,N/A,,Mostly Cloudy,200,2012-12-09 15:55:00
11:15 AM,59.0,55.4,88,30.13,10.0,WSW,3.5,-,N/A,,Overcast,240,2012-12-09 16:15:00
11:35 AM,60.8,55.4,82,30.12,10.0,Calm,Calm,-,N/A,,Mostly Cloudy,0,2012-12-09 16:35:00
11:55 AM,62.6,57.2,82,30.11,10.0,Calm,Calm,-,N/A,,Mostly Cloudy,0,2012-12-09 16:55:00
12:15 PM,62.6,57.2,82,30.11,10.0,Calm,Calm,-,N/A,,Mostly Cloudy,0,2012-12-09 17:15:00
12:35 PM,64.4,57.2,77,30.10,10.0,Calm,Calm,-,N/A,,Mostly Cloudy,0,2012-12-09 17:35:00
12:55 PM,64.4,57.2,77,30.09,10.0,Calm,Calm,-,N/A,,Mostly Cloudy,0,2012-12-09 17:55:00
1:15 PM,64.4,57.2,77,30.09,10.0,Calm,Calm,-,N/A,,Mostly Cloudy,0,2012-12-09 18:15:00
1:35 PM,62.6,57.2,82,30.09,7.0,South,4.6,-,N/A,,Mostly Cloudy,170,2012-12-09 18:35:00
1:55 PM,62.6,57.2,82,30.08,10.0,SSE,4.6,-,N/A,,Mostly Cloudy,160,2012-12-09 18:55:00
2:15 PM,62.6,57.2,82,30.08,7.0,Calm,Calm,-,N/A,,Overcast,0,2012-12-09 19:15:00
2:35 PM,62.6,57.2,82,30.08,10.0,SSE,3.5,-,N/A,,Overcast,150,2012-12-09 19:35:00
2:55 PM,62.6,57.2,82,30.09,10.0,Calm,Calm,-,N/A,,Mostly Cloudy,0,2012-12-09 19:55:00
3:15 PM,62.6,57.2,82,30.09,10.0,Calm,Calm,-,N/A,,Mostly Cloudy,0,2012-12-09 20:15:00
3:35 PM,62.6,57.2,82,30.09,10.0,Calm,Calm,-,N/A,,Overcast,0,2012-12-09 20:35:00
3:55 PM,64.4,59.0,83,30.09,10.0,Calm,Calm,-,N/A,,Overcast,0,2012-12-09 20:55:00
4:15 PM,62.6,57.2,82,30.09,10.0,Calm,Calm,-,N/A,,Overcast,0,2012-12-09 21:15:00
4:35 PM,62.6,57.2,82,30.10,10.0,Calm,Calm,-,N/A,,Overcast,0,2012-12-09 21:35:00
4:55 PM,60.8,55.4,82,30.09,10.0,Calm,Calm,-,N/A,,Overcast,0,2012-12-09 21:55:00
5:15 PM,59.0,55.4,88,30.09,10.0,Calm,Calm,-,N/A,,Overcast,0,2012-12-09 22:15:00
5:35 PM,59.0,55.4,88,30.09,10.0,Calm,Calm,-,N/A,,Overcast,0,2012-12-09 22:35:00
5:55 PM,57.2,53.6,88,30.09,7.0,Calm,Calm,-,N/A,,Scattered Clouds,0,2012-12-09 22:55:00
6:15 PM,57.2,53.6,88,30.09,7.0,Calm,Calm,-,N/A,,Mostly Cloudy,0,2012-12-09 23:15:00
6:35 PM,55.4,53.6,94,30.09,5.0,Calm,Calm,-,N/A,,Mostly Cloudy,0,2012-12-09 23:35:00
6:55 PM,55.4,53.6,94,30.08,5.0,Calm,Calm,-,N/A,,Mostly Cloudy,0,2012-12-09 23:55:00
7:15 PM,55.4,53.6,94,30.08,4.0,Calm,Calm,-,N/A,,Mostly Cloudy,0,2012-12-10 00:15:00
7:35 PM,55.4,53.6,94,30.08,3.0,Calm,Calm,-,N/A,,Mostly Cloudy,0,2012-12-10 00:35:00
7:55 PM,55.4,53.6,94,30.07,3.0,Calm,Calm,-,N/A,,Mostly Cloudy,0,2012-12-10 00:55:00
8:15 PM,55.4,53.6,94,30.06,3.0,Calm,Calm,-,N/A,,Mostly Cloudy,0,2012-12-10 01:15:00
8:35 PM,55.4,53.6,94,30.05,3.0,SE,3.5,-,N/A,,Mostly Cloudy,140,2012-12-10 01:35:00
8:55 PM,55.4,53.6,94,30.05,4.0,SSE,5.8,-,N/A,,Overcast,150,2012-12-10 01:55:00
9:15 PM,55.4,53.6,94,30.04,5.0,SSE,5.8,-,N/A,,Overcast,150,2012-12-10 02:15:00
9:35 PM,57.2,55.4,94,30.03,7.0,SSE,6.9,-,N/A,,Overcast,160,2012-12-10 02:35:00
9:55 PM,57.2,55.4,94,30.03,10.0,South,8.1,-,N/A,,Mostly Cloudy,170,2012-12-10 02:55:00
10:15 PM,57.2,55.4,94,30.03,10.0,SSE,6.9,-,N/A,,Mostly Cloudy,160,2012-12-10 03:15:00
10:35 PM,57.2,55.4,94,30.03,10.0,South,5.8,-,N/A,,Clear,170,2012-12-10 03:35:00
10:55 PM,59.0,55.4,88,30.03,10.0,South,5.8,-,N/A,,Clear,170,2012-12-10 03:55:00
11:15 PM,59.0,55.4,88,30.02,10.0,South,5.8,-,N/A,,Scattered Clouds,170,2012-12-10 04:15:00
11:35 PM,60.8,57.2,88,30.01,10.0,South,5.8,-,N/A,,Scattered Clouds,170,2012-12-10 04:35:00
11:55 PM,60.8,57.2,88,30.00,10.0,South,5.8,-,N/A,,Clear,170,2012-12-10 04:55:00